Regional Weather Roundup
Issued by NWS

Home | Current Version | Previous Version | Text Only | Print | Product List | Glossary On
Versions: 1 2 3 4 5 6 7 8 9 10 11 12 13 14 15 16 17 18 19 20 21 22 23 24 25 26 27 28 29 30 31 32 33 34 35 36 37 38 39 40 41 42 43 44 45 46 47 48 49 50
000
ASUS45 KBOU 251907
RWRCO

WEATHER ROUNDUP FOR COLORADO
NATIONAL WEATHER SERVICE DENVER/BOULDER CO
100 PM MDT MON MAY 25 2015

NOTE: "FAIR" INDICATES FEW OR NO CLOUDS BELOW 12000 FEET WITH NO
SIGNIFICANT WEATHER AND/OR OBSTRUCTIONS TO VISIBILITY.

COZ001>005-013-030-031-252000-
...NORTHWEST COLORADO...

CITY           SKY/WX    TMP DP  RH WIND       PRES   REMARKS
CRAIG          PTSUNNY   56  41  57 VRB7      30.01F
HAYDEN         MOSUNNY   52  37  58 NW7       30.02F
MEEKER         PTSUNNY   56  40  55 MISG      30.01F
MOUNT WERNER   NOT AVBL
STEAMBOAT SPGS CLOUDY    51  39  64 SW5       30.02S
WALDEN         CLOUDY    50  28  43 SW7       30.02S
$$

COZ006>008-011-252000-
...WEST CENTRAL VALLEYS...

CITY           SKY/WX    TMP DP  RH WIND       PRES   REMARKS
GRAND JUNCTION PTSUNNY   61  44  53 NE5       29.99S
MONTROSE       PTSUNNY   59  42  53 SW7       30.04S
EAGLE          PTSUNNY   55  37  50 SW9       30.02S
RIFLE          PTSUNNY   59  40  49 W5        30.01F
DELTA          PTSUNNY   63  44  49 MISG      30.01S THUNDER
NUCLA          TSTM      55  45  67 NW9       30.04S
$$

COZ017>023-064>068-252000-
...SOUTHWEST COLORADO...

CITY           SKY/WX    TMP DP  RH WIND       PRES   REMARKS
DURANGO        CLOUDY    52  40  63 W20       30.05R
CORTEZ         SUNNY     61  43  51 W7        30.02F
PAGOSA SPRINGS CLOUDY    53  38  55 SW7       30.07S
TELLURIDE      PTSUNNY   45  40  83 SE7       30.14F THUNDER
WOLF CREEK PAS NOT AVBL
$$

COZ009-010-012-014-032>034-037-058>063-252000-
...CENTRAL COLORADO...

CITY           SKY/WX    TMP DP  RH WIND       PRES   REMARKS
ASPEN          PTSUNNY   49  35  58 VRB3      30.06F
BUENA VISTA    LGT RAIN  49  38  67 SW23G31   30.02R
COPPER MTN     CLOUDY    36  27  69 W16G25    30.17S
BERTHOUD PASS  CLOUDY    27  19  74 NW15G24   30.18R WCI  15
COTTONWOOD PAS LGT SNOW  39  36  87 W8G22     30.10R
GUNNISON       PTSUNNY   48  37  66 E5        30.07F
KREMMLING      MOSUNNY   54  36  50 S3        30.04S
LEADVILLE      MOSUNNY   44  29  55 W13G20    30.08R
SALIDA         MOSUNNY   61  33  33 SW13      30.06F
SUNLIGHT       CLOUDY    37  36  93 CALM      30.19
WILKERSON PASS MOSUNNY   41  27  56 W5        30.16R
$$

COZ069>075-252000-
...SAN LUIS VALLEY/SANGRE DE CRISTO MOUNTAINS...

CITY           SKY/WX    TMP DP  RH WIND       PRES   REMARKS
ALAMOSA        PTSUNNY   59  35  40 N13       30.01F
LA VETA PASS   MOSUNNY  N/A N/A N/A MISG      30.12R THUNDER
SAGUACHE       MOSUNNY   55  34  44 NW12G20   30.05S
$$

COZ035-036-038>040-252000-
...NORTHERN COLORADO FRONT RANGE...

CITY           SKY/WX    TMP DP  RH WIND       PRES   REMARKS
DENVER INTL AP PTSUNNY   63  41  44 NE5       29.91F
DMNS CITY PARK   N/A     64  37  35 SW3G9     29.90S
AURORA         NOT AVBL
FRONT RANGE AP NOT AVBL
ERIE MUNI ARPT MOSUNNY   63  43  47 E8        29.90S
BOULDER MUN AP MOSUNNY   63  43  48 NE5       29.90S
CENTENNIAL     PTSUNNY   63  39  41 NW12      29.91F
BROOMFIELD     PTSUNNY   59  41  51 NE6       29.92S
FORT COLLINS   MOSUNNY   63  45  51 S5        29.91F
LONGMONT       MOSUNNY   67  44  42 E5        29.91F
$$

COZ041-046-047-076>085-087-088-252000-
...PIKES PEAK/PALMER DIVIDE AND SOUTHERN FOOTHILLS...

CITY           SKY/WX    TMP DP  RH WIND       PRES   REMARKS
COLO. SPRINGS  MOSUNNY   61  38  42 CALM      29.93F
A. F. ACADEMY  NOT AVBL
ELLICOTT       NOT AVBL
FALCON         MOSUNNY   61  33  34 SE3       29.96S
FORT CARSON    NOT AVBL
LIMON          MOSUNNY   61  44  53 N10       29.94R
MONUMENT HILL  NOT AVBL
TRINIDAD       CLOUDY    63  43  48 E5        29.94S
$$

COZ042>045-048>051-090-091-252000-
...NORTHEAST COLORADO...

CITY           SKY/WX    TMP DP  RH WIND       PRES   REMARKS
GREELEY ARPT   PTSUNNY   63  39  42 NW6       29.90F
AKRON          PTSUNNY   57  48  72 NW18      29.91R
BURLINGTON     PTSUNNY   63  45  51 SW6       29.91R
WRAY           PTSUNNY   66  47  50 W15G22    29.86R
STERLING       LGT RAIN  55  50  82 NW15G23   29.88S
HOLYOKE        NOT AVBL
FORT MORGAN    PTSUNNY   59  45  60 N18G24    29.91S
$$

COZ086-089-092>099-252000-
...SOUTHEAST COLORADO...

CITY           SKY/WX    TMP DP  RH WIND       PRES   REMARKS
PUEBLO         MOSUNNY   67  41  38 NE8       29.89R
LA JUNTA       CLOUDY    65  49  56 SE9       29.91R
LAMAR          MOSUNNY   69  50  50 SE6       29.88R
SPRINGFIELD      N/A     68  43  40 VRB6      29.89F
$$



USA.gov is the U.S. government's official web portal to all federal, state and local government web resources and services.